TimeCDT,TemperatureF,Dew PointF,Humidity,Sea Level PressureIn,VisibilityMPH,Wind Direction,Wind SpeedMPH,Gust SpeedMPH,PrecipitationIn,Events,Conditions,WindDirDegrees,DateUTC
12:13 AM,64.4,30.2,28,29.76,10.0,SSE,16.1,19.6,N/A,,Clear,160,2012-10-04 05:13:00
12:33 AM,66.2,30.2,26,29.77,10.0,South,16.1,19.6,N/A,,Clear,170,2012-10-04 05:33:00
12:53 AM,64.4,30.2,28,29.76,10.0,South,16.1,23.0,N/A,,Clear,180,2012-10-04 05:53:00
1:13 AM,64.4,32.0,30,29.78,10.0,SSW,16.1,-,N/A,,Clear,210,2012-10-04 06:13:00
1:32 AM,62.6,35.6,37,29.79,7.0,SW,21.9,31.1,N/A,,Clear,230,2012-10-04 06:32:00
1:53 AM,55.4,39.2,54,29.82,10.0,WSW,18.4,25.3,N/A,,Clear,240,2012-10-04 06:53:00
2:13 AM,53.6,41.0,62,29.82,10.0,WSW,16.1,21.9,N/A,,Clear,240,2012-10-04 07:13:00
2:33 AM,53.6,42.8,67,29.83,10.0,WSW,18.4,25.3,N/A,,Clear,250,2012-10-04 07:33:00
2:53 AM,51.8,41.0,67,29.85,10.0,West,26.5,34.5,N/A,,Clear,270,2012-10-04 07:53:00
3:13 AM,51.8,41.0,67,29.86,10.0,West,21.9,25.3,N/A,,Scattered Clouds,280,2012-10-04 08:13:00
3:33 AM,51.8,41.0,67,29.86,10.0,West,23.0,35.7,N/A,,Scattered Clouds,280,2012-10-04 08:33:00
3:53 AM,51.8,41.0,67,29.86,10.0,West,27.6,31.1,N/A,,Mostly Cloudy,270,2012-10-04 08:53:00
4:13 AM,48.2,39.2,71,29.87,10.0,West,24.2,32.2,N/A,,Mostly Cloudy,280,2012-10-04 09:13:00
4:33 AM,48.2,39.2,71,29.88,10.0,West,27.6,35.7,N/A,,Mostly Cloudy,280,2012-10-04 09:33:00
4:53 AM,48.2,39.2,71,29.90,10.0,West,21.9,35.7,N/A,,Overcast,280,2012-10-04 09:53:00
5:13 AM,48.2,39.2,71,29.90,10.0,West,25.3,39.1,N/A,,Mostly Cloudy,280,2012-10-04 10:13:00
5:33 AM,46.4,39.2,76,29.90,10.0,West,32.2,39.1,N/A,,Mostly Cloudy,280,2012-10-04 10:33:00
5:53 AM,46.4,39.2,76,29.91,10.0,West,25.3,36.8,N/A,,Mostly Cloudy,280,2012-10-04 10:53:00
6:12 AM,46.4,37.4,71,29.92,10.0,West,28.8,35.7,N/A,,Mostly Cloudy,280,2012-10-04 11:12:00
6:33 AM,44.6,35.6,71,29.95,10.0,West,27.6,39.1,N/A,,Mostly Cloudy,280,2012-10-04 11:33:00
6:53 AM,44.6,35.6,71,29.97,10.0,West,27.6,32.2,N/A,,Overcast,280,2012-10-04 11:53:00
7:12 AM,42.8,33.8,70,29.98,10.0,West,20.7,32.2,N/A,,Mostly Cloudy,270,2012-10-04 12:12:00
7:38 AM,42.8,33.8,70,29.99,10.0,West,18.4,-,N/A,,Scattered Clouds,270,2012-10-04 12:38:00
7:53 AM,41.0,33.8,76,30.00,10.0,West,18.4,-,N/A,,Clear,270,2012-10-04 12:53:00
8:13 AM,42.8,33.8,70,30.00,10.0,WNW,27.6,33.4,N/A,,Mostly Cloudy,290,2012-10-04 13:13:00
8:33 AM,42.8,33.8,70,30.01,10.0,West,26.5,33.4,N/A,,Overcast,280,2012-10-04 13:33:00
8:53 AM,42.8,33.8,70,30.02,10.0,WNW,26.5,32.2,N/A,,Mostly Cloudy,290,2012-10-04 13:53:00
9:13 AM,44.6,33.8,66,30.03,10.0,WNW,25.3,29.9,N/A,,Mostly Cloudy,290,2012-10-04 14:13:00
9:33 AM,44.6,33.8,66,30.04,10.0,WNW,21.9,34.5,N/A,,Scattered Clouds,290,2012-10-04 14:33:00
9:52 AM,44.6,33.8,66,30.04,10.0,WNW,25.3,34.5,N/A,,Scattered Clouds,300,2012-10-04 14:52:00
10:13 AM,44.6,33.8,66,30.05,10.0,WNW,29.9,39.1,N/A,,Clear,300,2012-10-04 15:13:00
10:33 AM,44.6,33.8,66,30.05,10.0,WNW,26.5,35.7,N/A,,Clear,300,2012-10-04 15:33:00
10:53 AM,46.4,33.8,62,30.05,10.0,WNW,32.2,36.8,N/A,,Clear,300,2012-10-04 15:53:00
11:33 AM,46.4,32.0,57,30.07,10.0,WNW,27.6,34.5,N/A,,Clear,300,2012-10-04 16:33:00
11:53 AM,48.2,32.0,54,30.08,10.0,WNW,24.2,34.5,N/A,,Clear,300,2012-10-04 16:53:00
12:13 PM,48.2,32.0,54,30.08,10.0,WNW,29.9,40.3,N/A,,Clear,290,2012-10-04 17:13:00
12:33 PM,48.2,32.0,54,30.09,10.0,WNW,33.4,39.1,N/A,,Clear,300,2012-10-04 17:33:00
12:53 PM,50.0,32.0,50,30.10,10.0,WNW,29.9,42.6,N/A,,Clear,290,2012-10-04 17:53:00
1:13 PM,50.0,30.2,47,30.10,10.0,WNW,27.6,42.6,N/A,,Clear,290,2012-10-04 18:13:00
1:33 PM,48.2,30.2,50,30.11,10.0,WNW,32.2,38.0,N/A,,Clear,290,2012-10-04 18:33:00
1:52 PM,48.2,30.2,50,30.12,10.0,NW,27.6,33.4,N/A,,Clear,310,2012-10-04 18:52:00
2:13 PM,51.8,30.2,44,30.12,10.0,WNW,26.5,39.1,N/A,,Clear,300,2012-10-04 19:13:00
2:33 PM,50.0,30.2,47,30.13,10.0,WNW,25.3,35.7,N/A,,Clear,300,2012-10-04 19:33:00
2:52 PM,50.0,30.2,47,30.13,10.0,NW,27.6,33.4,N/A,,Scattered Clouds,310,2012-10-04 19:52:00
3:13 PM,51.8,30.2,44,30.13,10.0,WNW,29.9,35.7,N/A,,Scattered Clouds,290,2012-10-04 20:13:00
3:33 PM,50.0,30.2,47,30.14,10.0,WNW,25.3,36.8,N/A,,Scattered Clouds,300,2012-10-04 20:33:00
3:53 PM,50.0,30.2,47,30.13,10.0,WNW,28.8,35.7,N/A,,Scattered Clouds,300,2012-10-04 20:53:00
4:13 PM,51.8,30.2,44,30.15,10.0,WNW,27.6,34.5,N/A,,Scattered Clouds,300,2012-10-04 21:13:00
4:33 PM,50.0,28.4,43,30.14,10.0,NW,26.5,31.1,N/A,,Scattered Clouds,320,2012-10-04 21:33:00
4:53 PM,48.2,28.4,46,30.16,10.0,WNW,17.3,33.4,N/A,,Scattered Clouds,300,2012-10-04 21:53:00
5:13 PM,48.2,30.2,50,30.16,10.0,WNW,23.0,32.2,N/A,,Mostly Cloudy,300,2012-10-04 22:13:00
5:33 PM,48.2,30.2,50,30.16,10.0,WNW,25.3,33.4,N/A,,Mostly Cloudy,300,2012-10-04 22:33:00
5:53 PM,48.2,30.2,50,30.17,10.0,WNW,20.7,28.8,N/A,,Mostly Cloudy,300,2012-10-04 22:53:00
6:13 PM,48.2,30.2,50,30.17,10.0,WNW,23.0,-,N/A,,Mostly Cloudy,300,2012-10-04 23:13:00
6:33 PM,46.4,30.2,53,30.18,10.0,WNW,20.7,27.6,N/A,,Mostly Cloudy,300,2012-10-04 23:33:00
6:53 PM,46.4,30.2,53,30.18,10.0,NW,24.2,-,N/A,,Overcast,310,2012-10-04 23:53:00
7:13 PM,46.4,30.2,53,30.19,10.0,WNW,18.4,25.3,N/A,,Overcast,300,2012-10-05 00:13:00
7:33 PM,46.4,30.2,53,30.20,10.0,WNW,12.7,-,N/A,,Overcast,300,2012-10-05 00:33:00
8:13 PM,46.4,30.2,53,30.20,10.0,WNW,11.5,-,N/A,,Overcast,300,2012-10-05 01:13:00
8:32 PM,46.4,30.2,53,30.20,10.0,WNW,17.3,24.2,N/A,,Overcast,300,2012-10-05 01:32:00
8:53 PM,46.4,30.2,53,30.21,10.0,WNW,17.3,23.0,N/A,,Overcast,290,2012-10-05 01:53:00
9:13 PM,46.4,30.2,53,30.21,10.0,WNW,18.4,24.2,N/A,,Overcast,300,2012-10-05 02:13:00
9:32 PM,46.4,30.2,53,30.21,10.0,NW,17.3,-,N/A,,Overcast,310,2012-10-05 02:32:00
9:53 PM,44.6,32.0,61,30.22,10.0,WNW,11.5,-,N/A,,Overcast,300,2012-10-05 02:53:00
10:13 PM,44.6,32.0,61,30.21,10.0,WNW,23.0,26.5,N/A,,Overcast,290,2012-10-05 03:13:00
10:32 PM,44.6,30.2,57,30.22,10.0,WNW,13.8,-,N/A,,Overcast,300,2012-10-05 03:32:00
10:53 PM,44.6,30.2,57,30.22,10.0,WNW,13.8,23.0,N/A,,Overcast,290,2012-10-05 03:53:00
11:13 PM,44.6,30.2,57,30.22,10.0,WNW,18.4,24.2,N/A,,Overcast,300,2012-10-05 04:13:00
11:32 PM,42.8,30.2,61,30.22,10.0,WNW,15.0,18.4,N/A,,Scattered Clouds,290,2012-10-05 04:32:00
11:53 PM,44.6,30.2,57,30.22,10.0,WNW,16.1,-,N/A,,Mostly Cloudy,300,2012-10-05 04:53:00